Regional Weather Roundup
Issued by NWS

Home | Current Version | Previous Version | Graphics & Text | Print | Product List | Glossary On
Versions: 1 2 3 4 5 6 7 8 9 10 11 12 13 14 15 16 17 18 19 20 21 22 23 24 25 26 27
000
ASUS45 KPSR 201210
RWRAZ

ARIZONA HOURLY REGIONAL WEATHER ROUNDUP
NATIONAL WEATHER SERVICE PHOENIX AZ
500 AM MST WED SEP 20 2017

NOTE: FAIR INDICATES FEW OR NO CLOUDS BELOW 12,000 FEET WITH NO
SIGNIFICANT WEATHER AND/OR OBSTRUCTIONS TO VISIBILITY.

AZZ001>003-036-201300-
NORTHWEST ARIZONA

CITY           SKY/WX    TMP DP  RH WIND       PRES   REMARKS
BULLHEAD CITY  CLEAR     73  39  29 SE7       29.73R
KINGMAN        CLEAR     58  39  49 SE6       29.88S
6HR MIN TEMP:  58; 6HR MAX TEMP:  69;

$$

AZZ004>008-015-016-018-201300-
NORTH CENTRAL ARIZONA

CITY           SKY/WX    TMP DP  RH WIND       PRES   REMARKS
GRAND CANYON   PTCLDY    38  30  73 NE5       30.09S WCI  34
6HR MIN TEMP:  37; 6HR MAX TEMP:  47;

WILLIAMS       CLEAR     48  32  53 SE8       30.09S
PRESCOTT       CLEAR     52  38  58 S6        30.02S
6HR MIN TEMP:  51; 6HR MAX TEMP:  67;

FLAGSTAFF      CLEAR     38  28  67 CALM      30.12F
6HR MIN TEMP:  38; 6HR MAX TEMP:  56;

PAYSON           N/A     57  21  24 SE3       30.06S
PAGE           CLEAR     62  34  35 SE8       29.90S
6HR MIN TEMP:  62; 6HR MAX TEMP:  74;

$$

AZZ009>014-017-201300-
NORTHEAST ARIZONA

CITY           SKY/WX    TMP DP  RH WIND       PRES   REMARKS
WINSLOW        CLEAR     54  33  45 SE7       30.00F
6HR MIN TEMP:  52; 6HR MAX TEMP:  68;

SAINT JOHNS    PTCLDY    47  31  53 S3        30.06R
6HR MIN TEMP:  47; 6HR MAX TEMP:  66;

WINDOW ROCK    CLEAR     41  29  62 CALM      30.12R
6HR MIN TEMP:  41; 6HR MAX TEMP:  57;

SHOW LOW       CLEAR     57  28  33 S23G30    30.08F
$$

AZZ540-542>544-546-548-201300-
GREATER PHOENIX AREA

CITY           SKY/WX    TMP DP  RH WIND       PRES   REMARKS
PHOENIX        CLEAR     73  36  25 E8        29.81R
6HR MIN TEMP:  73; 6HR MAX TEMP:  83;

BUCKEYE        CLEAR     70  28  21 E9        29.81R
LUKE AFB       CLEAR     68  37  32 N5        29.81S
6HR MIN TEMP:  68; 6HR MAX TEMP:  81;

SCOTTSDALE     CLEAR     74  30  19 E3        29.85R
6HR MIN TEMP:  73; 6HR MAX TEMP:  82;

MESA-GATEWAY   CLEAR     66  39  37 E10       29.85S
$$

AZZ539-553-201300-
SOUTHWEST MARICOPA COUNTY AND PINAL COUNTY

CITY           SKY/WX    TMP DP  RH WIND       PRES   REMARKS
CASA GRANDE    NOT AVBL
GILA BEND      FAIR      75  49  40 SE6       29.78R
6HR MIN TEMP:  72; 6HR MAX TEMP:  79;

$$

AZZ503-504-507>509-201300-
SOUTHEAST ARIZONA

CITY           SKY/WX    TMP DP  RH WIND       PRES   REMARKS
TUCSON         CLEAR     73  56  54 SE9       29.96R
6HR MIN TEMP:  73; 6HR MAX TEMP:  80;

DAVIS-MONTHAN  CLEAR     69  55  62 E7        29.94S
6HR MIN TEMP:  68; 6HR MAX TEMP:  75;

NOGALES        CLEAR     62  57  83 CALM      30.03R
6HR MIN TEMP:  62; 6HR MAX TEMP:  71;

SIERRA VISTA   CLEAR     70  50  49 S14       30.07S
6HR MIN TEMP:  63; 6HR MAX TEMP:  73;

DOUGLAS        CLEAR     65  57  75 MISG      30.05S
6HR MIN TEMP:  63; 6HR MAX TEMP:  69;

SAFFORD        CLEAR     62  37  39 E5        29.95R
6HR MIN TEMP:  62; 6HR MAX TEMP:  80;

$$

AZZ532-201300-
SOUTHWEST ARIZONA

CITY           SKY/WX    TMP DP  RH WIND       PRES   REMARKS
YUMA           CLEAR     76  68  76 SE5       29.73R
6HR MIN TEMP:  76; 6HR MAX TEMP:  81;

$$

CAZ041-043-047-048-061-525>527-560>570-201300-
SOUTHERN CALIFORNIA

CITY           SKY/WX    TMP DP  RH WIND       PRES   REMARKS
DOWNTOWN L.A.  CLEAR     64  59  83 CALM      29.86S
6HR MIN TEMP:  64; 6HR MAX TEMP:  68;

L.A. AIRPORT   MOCLDY    63  60  90 NE5       29.86S
6HR MIN TEMP:  63; 6HR MAX TEMP:  67;

SAN DIEGO      CLOUDY    70  58  65 SE6       29.88S
6HR MIN TEMP:  69; 6HR MAX TEMP:  70;

BURBANK        CLEAR     60  55  83 CALM      29.87S
6HR MIN TEMP:  60; 6HR MAX TEMP:  67;

RIVERSIDE      CLOUDY    65  60  84 CALM      29.87S
6HR MIN TEMP:  64; 6HR MAX TEMP:  65;

PALM SPRINGS   CLEAR     74  55  51 W5        29.75R
6HR MIN TEMP:  74; 6HR MAX TEMP:  79;

EL CENTRO NAS  CLEAR     68  39  34 S7        29.74R
6HR MIN TEMP:  67; 6HR MAX TEMP:  81;

IMPERIAL       CLEAR     69  41  36 S6        29.72R
6HR MIN TEMP:  69; 6HR MAX TEMP:  79;

BLYTHE         CLEAR     74  48  39 VRB6      29.74R
6HR MIN TEMP:  69; 6HR MAX TEMP:  82;

NEEDLES        CLEAR     79  46  31 W10       29.74R
6HR MIN TEMP:  78; 6HR MAX TEMP:  88;

$$

NVZ020-UTZ003-201300-
SOUTHERN NEVADA-UTAH

CITY           SKY/WX    TMP DP  RH WIND       PRES   REMARKS
LAS VEGAS      CLEAR     73  40  30 S9        29.77R
6HR MIN TEMP:  73; 6HR MAX TEMP:  80;

SALT LAKE CITY PTCLDY    48  38  68 S8        29.93S
6HR MIN TEMP:  47; 6HR MAX TEMP:  52;

$$

NMZ009-TXZ055-201300-
NEW MEXICO-WEST TEXAS

CITY           SKY/WX    TMP DP  RH WIND       PRES   REMARKS
ALBUQUERQUE    CLOUDY    60  37  42 CALM      30.06R
6HR MIN TEMP:  59; 6HR MAX TEMP:  70;

EL PASO        PTCLDY    77  48  35 W7        29.99R
6HR MIN TEMP:  76; 6HR MAX TEMP:  83;

$$


........................KEY........................
SKY/WX - SKY CONDITION/WEATHER
TMP    - TEMPERATURE IN FAHRENHEIT
DP     - DEW POINT IN FAHRENHEIT
RH     - RELATIVE HUMIDITY IN PERCENT
WIND   - DIRECTION AND SPEED IN MILES PER HOUR (MPH)
VRB    - VARIABLE WIND DIRECTION
PRES   - MEAN SEA LEVEL PRESSURE IN INCHES OF MERCURY
         F - FALLING PRESSURE   R - RISING PRESSURE
         S - STEADY PRESSURE
VSB    - VISIBILITY IN MILES
HX     - HEAT INDEX IN FAHRENHEIT
WCI    - WIND CHILL INDEX IN FAHRENHEIT
TC     - TEMPERATURE IN CELSIUS WHICH IS ALSO KNOWN AS
         TEMPERATURE IN CENTIGRADE
AFB    - AIR FORCE BASE
         LUKE AFB IS LUKE AIR FORCE BASE
         DAVIS-MONTHAN IS DAVIS-MONTHAN AIR FORCE BASE
NAS    - NAVAL AIR STATION
         EL CENTRO NAS IS EL CENTRO NAVAL AIR STATION
N/A    - NOT AVAILABLE





USA.gov is the U.S. government's official web portal to all federal, state and local government web resources and services.